Location: SBMNH
(34.4407°N, 119.7157°W)
Time: 08:54:01
(UTC-07:00)

X-37B - Visible Passes

Search period start: 16 August 2022 00:00
Search period end: 26 August 2022 00:00
Orbit: 328 x 343 km, 45.0° (Epoch: 12 August)

Date Brightness Start Highest point End Pass type
(mag) Time Alt. Az. Time Alt. Az. Time Alt. Az.
16 Aug 3.8 03:51:05 12° ENE 03:51:05 12° ENE 03:51:33 10° ENE visible
16 Aug 0.3 05:22:23 11° WNW 05:25:05 64° SW 05:27:56 10° SE visible
17 Aug 3.2 04:12:00 16° E 04:12:00 16° E 04:12:47 10° E visible
17 Aug 1.9 05:43:20 10° W 05:45:22 19° SW 05:47:29 10° S visible
18 Aug 3.3 04:33:21 10° SE 04:33:21 10° SE 04:33:22 10° SE visible
18 Aug 2.0 20:49:14 10° SSW 20:50:39 19° S 20:50:39 19° S visible
19 Aug 0.2 21:09:03 10° SW 21:11:40 74° SSW 21:11:40 74° SSW visible
20 Aug 2.1 21:29:47 10° W 21:32:16 32° NNW 21:32:16 32° NNW visible
21 Aug 0.2 20:14:30 10° SW 20:17:18 82° SSE 20:20:08 10° ENE visible
21 Aug 3.4 21:51:08 10° WNW 21:52:30 16° NNW 21:52:30 16° NNW visible
22 Aug 2.0 20:35:13 10° W 20:37:49 32° NNW 20:40:25 10° NE visible
23 Aug 3.1 20:56:33 10° WNW 20:58:30 17° NNW 21:00:27 10° NNE visible
24 Aug 3.4 21:18:19 10° NNW 21:19:19 11° N 21:20:20 10° NNE visible
25 Aug 3.1 20:01:59 10° WNW 20:03:55 17° NNW 20:05:52 10° NNE visible
